Location: Ail?ru
(16.2645°N, 80.8300°E)
Time: 12:21:05
(UTC+00:00)

Daily predictions for brighter satellites

Satellite Brightness Start Highest point End
(mag) Time Altitude Azimuth Time Altitude Azimuth Time Altitude Azimuth
Cosmos 1867 3.8 13:12:50 10° S 13:18:02 50° ESE 13:23:15 10° NE
SL-8 Rocket 4.0 13:13:21 10° S 13:19:29 78° E 13:25:40 10° N
Cosmos 1500 Rocket 3.7 13:19:22 10° SSE 13:23:30 48° E 13:27:38 10° NNE
Cosmos 1302 Rocket 4.0 13:18:38 10° N 13:23:49 66° ENE 13:29:00 10° SSE
Yuri Rocket 3.9 13:20:26 10° W 13:25:36 53° NNW 13:29:48 10° NE
CENTAUR R/B 3.5 13:22:38 10° SE 13:25:52 16° ESE 13:29:16 10° ENE
Cosmos 292 Rocket 3.8 13:21:56 10° N 13:26:38 66° ENE 13:31:22 10° SSE
CZ-2D R/B 3.2 13:23:54 10° S 13:27:41 89° W 13:31:29 10° NNW
CSL-04 Rocket 4.1 13:23:36 10° SE 13:28:31 40° ENE 13:33:24 10° N
Iridium 2 3.7 13:28:09 10° N 13:31:51 59° E 13:35:31 10° SSE
Delta 202 4.4 13:23:04 10° W 13:31:54 75° N 13:37:57 10° E
Cosmos 1441 Rocket 4.2 13:30:49 10° SSE 13:34:03 26° E 13:37:13 10° NE
ARGOS 4.3 13:33:16 10° SE 13:37:32 24° ENE 13:41:47 10° NNE
HJ-1C 4.1 13:35:19 10° SE 13:38:22 33° ENE 13:41:24 10° NNE
Okean-O 3.4 13:34:33 10° S 13:38:52 54° WSW 13:43:11 10° NNW
COSMOS 2406 4.5 13:36:24 10° SW 13:41:54 47° WNW 13:47:24 10° N
Cosmos 2082 Rocket 2.3 13:36:49 10° S 13:42:21 54° ESE 13:47:53 10° NNE
CZ-4 R/B 1.9 13:38:59 10° S 13:42:47 58° W 13:46:39 10° NNW
Ariane Rocket 4.5 13:41:42 13° ESE 13:44:20 18° ENE 13:47:41 10° NNE
Cosmos 1328 Rocket 3.6 13:39:56 10° N 13:44:22 88° WSW 13:48:48 10° S
GPS 2-15 Rocket1 3.7 13:40:27 10° SW 13:44:48 40° SSE 13:48:12 15° E
Sakura Rocket 4.1 13:36:49 10° WNW 13:45:02 80° NNE 13:49:55 15° ESE
Cosmos 1805 Rocket 4.0 13:43:18 10° SSE 13:47:26 41° E 13:51:35 10° NNE
Cosmos 1782 3.4 13:44:27 10° NNE 13:48:12 37° E 13:51:56 10° SSE
Cosmos 407 Rocket 3.5 13:42:53 10° S 13:48:13 80° ESE 13:53:32 10° NNE
SL-08 R/B 4.5 13:42:20 10° S 13:48:33 65° E 13:54:39 10° NNE
Cosmos 1190 Rocket 4.0 13:45:01 10° S 13:50:10 64° ESE 13:55:23 10° NNE
CZ-3B R/B 3.3 13:51:08 10° WNW 13:54:06 69° NNE 13:59:38 18° E
CZ-2C R/B 2.8 13:50:08 10° NNE 13:55:09 48° E 14:00:17 10° S
Cosmos 1992 Rocket 4.3 13:51:35 10° N 13:56:34 46° ENE 14:00:39 15° SE
Cosmos 1140 Rocket 3.4 13:55:21 10° S 14:00:34 80° ESE 14:05:48 10° NNE
Cosmos 1339 Rocket 4.4 13:55:05 10° N 14:01:21 79° E 14:07:30 10° S
deb Kosmos-1763 3.9 13:58:03 10° S 14:01:35 63° ESE 14:05:10 10° NNE
ARIANE 5 R/B 4.4 13:39:26 10° WSW 14:02:23 29° SSW 14:06:22 15° SSE
Cosmos 1023 Rocket 4.5 13:57:43 10° SSW 14:02:58 88° ESE 14:08:15 10° NNE
Meteor 1-26 Rocket 4.2 13:59:09 10° N 14:04:33 78° W 14:09:57 10° S
Cosmos 1633 Rocket 4.3 14:06:01 22° E 14:06:01 22° E 14:08:54 10° NE
Aureole 1 Rocket 4.0 13:59:56 10° S 14:05:31 59° E 14:12:42 10° NNE
NOSS 3-2 (A) 3.2 14:00:12 10° SSW 14:05:33 79° WNW 14:11:14 10° NNE
NOSS 3-2 (C) 3.0 14:09:25 10° SSW 14:14:43 63° ESE 14:20:18 10° NNE
ATLAS 5 CENTAUR R/B 3.2 14:13:44 10° N 14:19:45 39° ENE 14:22:12 30° ESE
Cosmos 2084 Rocket 3.3 14:17:55 10° SSW 14:21:57 57° ESE 14:26:01 10° NE
Meteor 2-6 Rocket 4.3 14:18:00 10° N 14:23:34 57° E 14:26:34 28° SSE
USA 267 3.6 14:20:01 10° NNE 14:26:29 68° NW 14:32:58 10° SW
Cosmos 1934 Rocket 4.2 14:23:56 23° SSE 14:27:39 46° E 14:33:40 10° NNE
CZ-2C R/B 3.9 14:25:00 10° S 14:29:42 44° W 14:34:16 10° NNW
H-2A R/B 2.6 14:26:20 10° S 14:31:29 57° WSW 14:36:29 10° NNW
Cosmos 1656 3.8 14:26:47 10° N 14:32:08 50° ENE 14:33:06 45° ESE
IRS-1A Rocket 4.2 14:34:37 37° SSE 14:36:54 72° ENE 14:42:34 10° N
Sich 1 3.8 14:35:30 10° SSW 14:39:47 52° W 14:44:06 10° N
Cosmos 1697 Rocket 3.8 14:36:40 10° NNE 14:40:23 27° NE 14:40:23 27° NE
CZ-2C R/B 3.6 14:38:01 10° N 14:42:30 85° WNW 14:44:28 33° SSW
SJ-6B 3.1 14:43:07 61° NNE 14:43:07 61° NNE 14:46:34 10° N
Cosmos 1727 Rocket 4.1 14:37:13 10° N 14:43:33 78° W 14:48:30 17° S
Cosmos 2228 Rocket 3.7 14:42:41 10° NNW 14:46:57 53° W 14:48:37 33° SSW
Resurs 01 Rocket 4.1 14:55:04 11° NNE 14:55:04 11° NNE 14:55:16 10° NNE
GPS 2-17 Rocket1 3.3 14:50:20 10° W 14:54:08 60° W 14:54:08 60° W
VEP-3 3.4 14:51:47 10° WNW 14:57:31 85° NNE 15:02:03 41° ESE
Meteor 1-27 Rocket 4.0 14:55:53 10° N 15:00:51 55° NE 15:00:51 55° NE
Palapa 6 Rocket 4.3 14:55:42 10° WNW 15:03:25 86° SSW 15:04:52 64° ESE
ATLAS 2A CENTAUR R/B 4.2 14:11:44 10° WSW 15:08:05 79° SSE 15:12:52 43° E
CENTAUR R/B 3.6 15:11:02 10° SW 15:15:52 35° WNW 15:21:18 10° N
CZ-3A R/B 3.7 14:44:51 10° WNW 15:17:53 72° N 15:20:48 52° ENE
Cosmos 1605 Rocket 4.5 15:25:29 50° N 15:25:29 50° N 15:29:51 10° N
ATLAS 5 CENTAUR R/B 3.6 15:25:30 10° SW 15:49:35 11° ENE 15:50:13 10° ENE
ATLAS 5 CENTAUR R/B 4.2 15:58:48 10° WNW 16:03:48 27° WSW 16:03:48 27° WSW
Lacrosse 5 rocket 4.0 21:46:37 20° ENE 21:46:37 20° ENE 21:48:16 10° NE
ATLAS 3B CENTAUR R/B 3.9 21:36:47 22° WNW 21:46:32 56° N 21:53:08 10° E
Intelsat 5-1 Rocket 3.8 21:57:29 68° SSW 21:58:41 76° SSE 22:20:25 10° ENE
USA 281 3.6 21:58:43 10° NNE 22:05:07 56° ESE 22:06:52 43° SSE
ATLAS 2AS CENTAUR R/B 4.2 22:09:49 17° SSE 22:14:57 37° ESE 22:22:04 10° NE
Atlas Centaur 2 4.2 22:16:24 18° NW 22:19:32 25° N 22:25:42 10° NE
Cosmos 883 Rocket 4.3 22:24:24 70° WSW 22:24:47 73° W 22:31:00 10° N
Centaur AC-72 2.9 22:25:39 50° WNW 22:27:24 88° N 22:37:54 10° E
SeaSat 1 2.8 22:22:45 10° NNE 22:26:43 50° NNW 22:26:43 50° NNW
SWIFT 3.1 22:30:45 45° ESE 22:30:45 45° ESE 22:33:55 10° E
DELTA 2 R/B (1) 3.6 22:32:18 60° WNW 22:32:41 61° NW 22:38:14 10° NE
Cosmos 494 Rocket 4.2 22:28:25 10° N 22:33:35 71° ENE 22:38:47 10° SSE
PSLV R/B 4.4 22:33:44 10° N 22:36:42 39° NNW 22:36:42 39° NNW
Aureole 2 Rocket 4.4 22:38:07 20° E 22:38:07 20° E 22:40:08 10° NE
Meteor 1-31 Rocket 4.4 22:41:44 10° NE 22:45:11 32° E 22:48:19 12° SSE
Cosmos 1745 Rocket 4.0 22:39:18 10° NNW 22:45:20 56° W 22:48:07 31° SSW
Cosmos 1484 Rocket 4.0 22:43:51 10° NNE 22:47:20 38° E 22:50:07 15° SSE
GPS 2-12 Rocket1 3.0 22:47:27 60° W 22:48:16 80° N 22:53:03 10° ENE
Hubble Space Telescope 3.2 22:46:51 12° NNW 22:48:31 15° N 22:50:51 10° NNE
DELTA 4 R/B 3.8 22:42:21 29° WSW 22:50:46 72° SSE 22:55:33 10° ENE
CZ-2C R/B 2.5 22:46:50 10° N 22:51:19 47° WNW 22:51:34 47° W
deb Chang Zheng 4 3.5 22:47:00 10° N 22:51:19 65° WNW 22:51:59 56° WSW
Cosmos 1812 Rocket 3.5 22:50:25 27° S 22:52:45 78° E 22:57:03 10° N
Cosmos 1932 4.4 22:47:36 10° NW 22:53:47 56° WSW 22:59:49 10° S
Ariane H10 4.4 22:56:54 21° SSW 22:58:41 26° SSE 23:08:28 10° ESE
CZ-4B R/B 3.2 22:56:35 10° SE 22:59:35 32° ENE 23:02:30 10° NNE
GPS 2-18 Rocket1 3.5 23:02:32 40° SSW 23:02:32 40° SSW 23:05:57 10° SE
Delta 142 3.4 23:02:35 46° WSW 23:03:24 56° SSW 23:07:34 10° SE
Cosmos 2278 Rocket 2.2 23:01:43 27° SW 23:04:49 63° WNW 23:10:25 10° N
ADEOS 3.6 23:00:02 10° N 23:05:08 59° WNW 23:08:31 21° SSW
H-2A R/B 2.8 23:08:45 29° WNW 23:08:45 29° WNW 23:11:35 10° NW
Cosmos 1400 Rocket 2.6 23:09:27 22° SSW 23:11:53 67° W 23:15:45 10° N
Cosmos 1455 2.2 23:11:25 26° SSW 23:13:21 55° W 23:17:08 10° N
Chandra Rocket (1) 3.1 23:08:42 22° WSW 23:16:03 74° NNW 23:20:06 10° ENE
CZ-4B R/B 3.4 23:15:51 10° NNE 23:20:12 66° ESE 23:24:21 10° S
ASTEX 1 3.7 23:16:42 10° NNE 23:21:34 71° E 23:26:29 10° S
ASTRO E2 2.7 23:20:01 27° WSW 23:22:02 72° NNW 23:25:58 10° ENE
Cosmos 482 Debris 4.4 23:23:10 24° SSW 23:23:10 24° SSW 23:24:23 10° S
USA 102 4.1 23:22:06 32° WSW 23:23:00 36° W 23:28:41 10° NW
Lacrosse 5 rocket 3.4 23:22:17 14° WNW 23:23:21 15° NW 23:26:02 10° NNW
SEDSat Delta rocket 4.1 23:19:58 21° WSW 23:24:34 73° NNW 23:31:22 10° ENE
ERS-2 3.3 23:25:25 22° W 23:25:25 22° W 23:27:58 10° NW
Cosmos 1709 Rocket 4.2 23:19:25 10° NNW 23:25:13 47° W 23:31:01 10° SSW
Cosmos 1689 Rocket 4.5 23:23:15 10° SE 23:25:45 26° ENE 23:28:13 10° NNE
ALOS 2.3 23:21:50 10° N 23:26:26 62° WNW 23:31:01 10° SSW
Meteor 2-10 Rocket 4.2 23:29:10 12° SW 23:33:20 33° W 23:38:03 10° NNW
COSMOS 2455 4.0 23:32:58 10° S 23:38:35 44° ESE 23:44:14 10° NE
CREW DRAGON DEMO-1 DEB 3.3 23:37:04 17° WSW 23:39:05 43° NW 23:42:01 10° NNE
SAR-Lupe-4 3.8 23:36:25 10° S 23:39:50 46° WSW 23:43:17 10° NNW
ATLAS 2A CENTAUR R/B 1.5 23:38:49 16° W 23:40:19 30° SSW 23:42:07 10° SE
Cosmos 1315 Rocket 3.0 23:36:36 10° S 23:40:41 79° E 23:44:48 10° N
Cosmos-2242 3.0 23:36:37 10° SSW 23:40:53 60° W 23:45:11 10° N
NOSS 3-4 (A) 4.0 23:37:09 12° SW 23:42:00 36° WNW 23:47:24 10° N
NOSS 3-4 (C) 4.0 23:37:14 12° SW 23:42:09 36° WNW 23:47:33 10° N
ATLAS 2A CENTAUR R/B 2.1 23:40:46 12° W 23:43:27 53° SSW 23:52:57 10° ESE
Nadezhda 1 Rocket 4.0 23:37:41 10° S 23:44:04 75° W 23:50:26 10° N
GPS 2-04 Rocket1 2.9 23:41:47 14° WSW 23:44:38 47° NNW 23:48:13 10° NE
USA 81 4.4 23:40:31 10° N 23:45:46 72° E 23:51:01 10° S
Cosmos 2058 3.2 23:43:03 10° NNW 23:47:04 46° W 23:51:05 10° SSW
Cosmos 2297 3.9 23:47:26 10° SSW 23:53:09 80° ESE 23:58:53 10° NNE
